Theta_e
329 331 330 330 335 338 340 343 348 352 354 353 357 358 356 353 356 352 350 350 351 351 351 350 350 348 344 341 338 344 341 338 335
328 327 329 331 334 337 340 342 348 349 355 355 357 357 359 356 355 356 354 352 351 350 348 349 349 349 345 343 340 338 340 337 334
325 326 329 332 333 337 341 343 347 350 356 356 358 356 360 359 357 356 355 355 351 353 348 350 348 349 346 346 341 340 341 335 337
325 327 328 332 334 338 342 344 347 349 353 356 357 359 358 360 359 358 356 356 353 351 351 348 348 348 348 344 342 342 340 334 334
324 323 329 333 335 336 341 343 344 348 355 356 358 360 359 359 360 360 357 355 354 354 350 351 350 348 347 345 342 340 340 335 335
323 323 324 333 333 337 341 343 343 347 352 357 359 361 360 359 358 359 359 356 356 356 356 352 350 350 346 345 343 340 340 336 332
323 326 323 328 333 337 339 343 344 345 350 356 359 361 360 358 358 358 359 359 356 357 357 355 348 348 348 346 344 340 340 336 334
320 322 324 327 332 334 338 341 343 345 348 351 357 358 358 357 358 359 359 359 359 357 356 355 353 347 348 346 343 340 337 337 336
317 317 329 331 333 334 335 338 341 344 346 349 353 355 355 356 357 357 357 358 358 359 356 356 353 351 348 346 346 335 335 338 337
318 320 326 330 331 336 336 338 340 342 346 348 350 352 354 354 354 355 356 357 357 357 357 358 356 354 350 346 347 332 330 336 338
316 321 325 331 335 338 340 341 341 344 345 346 347 347 351 353 354 354 356 356 357 356 358 357 357 354 348 347 342 329 328 331 334
315 317 322 321 331 337 344 343 343 342 342 344 344 344 346 350 352 354 355 356 356 357 357 357 354 349 343 339 338 325 324 327 331
318 320 320 321 325 336 342 345 345 342 341 343 341 343 348 350 351 354 356 357 356 355 356 348 348 342 340 333 336 324 321 322 330
328 329 320 322 329 338 341 345 347 344 343 341 347 345 358 354 358 360 359 358 354 349 348 348 343 339 338 336 336 332 318 317 331
325 324 334 327 338 340 346 346 349 347 346 350 353 359 361 361 362 362 356 351 347 345 347 344 340 338 337 339 335 328 316 315 317
327 337 346 348 350 351 353 351 352 352 355 357 357 358 357 356 354 351 349 346 345 344 342 341 338 337 335 333 337 330 316 313 313
339 341 344 348 348 348 350 353 354 354 354 356 356 353 350 350 349 346 347 345 344 343 340 339 338 337 333 333 332 327 321 320 318
339 340 342 347 348 349 350 352 353 354 355 354 350 347 344 344 344 337 321 312 317 331 315 325 334 335 334 332 331 330 322 320 321
328 328 342 347 348 348 349 351 351 350 350 348 345 341 340 340 334 329 325 321 314 301 301 300 301 308 321 312 314 308 306 307 309
321 325 337 343 344 345 345 346 346 348 347 346 344 340 339 337 334 332 329 325 320 313 307 300 298 299 306 308 303 301 299 298 300
Wind_Speed
23 34 22 25 25 25 24 21 21 21 22 21 19 18 17 15 10 10 9 7 5 7 9 9 10 10 10 9 8 7 5 3 4
29 24 20 23 23 24 23 22 23 24 22 21 21 20 17 16 14 12 11 8 6 6 9 9 11 12 12 11 9 8 7 5 6
20 16 19 19 22 24 23 24 21 23 22 24 22 20 16 15 16 16 13 7 9 8 7 7 13 12 13 11 11 8 8 6 5
22 24 25 24 24 23 23 22 21 22 23 23 20 20 18 17 16 15 14 9 9 9 8 9 13 13 13 13 12 11 8 8 7
24 16 30 23 24 23 22 24 23 22 21 23 22 21 19 18 17 15 14 15 11 9 12 10 14 14 13 14 13 12 12 10 8
6 7 10 19 21 21 21 22 23 22 21 21 21 20 19 18 17 16 17 16 14 11 12 12 13 15 16 15 14 13 12 11 7
14 8 8 13 22 24 24 23 23 22 21 21 21 20 19 19 19 19 18 17 16 14 12 11 13 14 15 14 13 12 11 10 9
8 9 9 10 18 19 21 21 22 22 21 22 22 21 20 20 19 17 16 16 15 14 13 11 9 10 11 10 9 9 8 11 10
12 8 7 8 18 24 22 21 20 21 22 22 22 21 21 19 17 17 16 15 14 13 13 10 11 10 10 10 8 14 17 14 10
11 9 9 9 10 20 19 20 21 22 23 22 22 20 20 20 18 17 17 14 13 12 13 11 11 12 10 10 11 12 10 13 8
4 8 5 7 12 9 16 17 20 22 20 21 21 20 20 20 18 19 16 16 14 14 11 13 10 10 8 8 6 11 6 10 6
11 8 14 5 6 9 11 20 20 18 19 19 20 19 19 21 19 18 17 16 15 12 9 9 8 7 9 10 8 11 9 8 5
9 12 17 15 13 10 15 14 19 20 21 19 21 21 19 17 18 16 16 15 13 6 9 6 7 7 8 9 9 13 13 9 4
5 4 11 12 12 15 15 12 19 20 20 22 16 15 10 13 14 15 15 12 11 10 9 9 7 8 9 10 10 7 13 13 7
5 4 3 10 10 12 11 10 17 14 16 11 13 13 13 13 14 11 11 15 10 8 10 10 8 8 6 5 6 7 9 12 14
6 9 8 6 9 11 10 10 13 14 10 15 15 15 14 14 14 13 12 12 12 9 9 8 7 7 5 4 4 4 3 6 8
8 4 9 13 13 12 11 13 12 15 14 16 17 16 14 13 14 12 10 7 7 9 7 6 6 6 5 4 4 4 3 3 3
13 8 5 14 18 15 13 14 15 14 15 18 17 15 12 12 10 11 10 9 5 6 5 3 5 4 6 6 5 4 7 8 6
16 26 12 14 15 19 16 16 16 15 15 17 17 14 9 9 10 9 9 9 8 16 10 6 7 5 8 2 3 13 12 11 9
18 25 33 21 16 13 14 12 14 13 12 15 14 14 12 9 10 9 9 8 8 8 5 11 15 12 11 7 11 11 12 11 9
Wind_Direction
158 210 199 191 187 188 186 179 176 174 178 180 181 180 186 192 182 204 216 206 171 180 177 179 164 165 164 167 167 171 161 176 168
183 210 215 205 186 188 183 180 178 178 176 180 183 182 184 190 194 202 208 200 188 178 181 171 175 170 170 170 179 170 164 174 188
192 192 212 219 189 186 185 183 175 177 175 180 182 187 185 189 195 204 208 181 204 178 192 154 172 172 173 169 182 172 173 176 194
193 206 196 192 188 185 183 179 176 177 176 177 182 185 189 188 197 200 204 198 199 184 184 163 171 174 176 180 179 184 177 182 186
191 191 205 193 183 178 175 181 178 180 175 179 183 185 187 192 194 196 198 207 202 183 193 173 177 180 180 185 189 185 183 185 192
239 219 163 181 176 174 175 181 180 178 177 180 183 183 187 191 195 196 200 204 202 191 195 189 184 182 187 189 189 187 188 184 182
182 213 183 174 173 175 180 178 179 182 181 177 180 184 188 192 196 202 202 202 202 202 198 188 184 188 189 192 190 187 183 176 181
209 170 223 172 171 173 181 178 181 182 182 181 179 184 189 195 198 202 204 206 202 203 200 195 179 173 182 183 177 181 167 182 187
174 203 190 178 169 174 178 180 181 180 181 185 183 186 192 194 195 198 202 201 200 196 198 191 179 178 174 175 182 184 182 183 185
176 191 191 197 170 181 179 182 180 181 183 181 186 189 188 192 194 196 199 193 193 189 192 189 181 188 175 176 184 195 192 182 184
206 210 200 226 192 163 182 186 184 187 176 182 186 189 190 189 190 197 191 191 188 193 185 191 184 181 165 171 151 144 179 209 197
188 154 249 180 236 187 175 177 181 179 182 182 185 187 191 190 187 189 189 186 186 184 169 174 165 157 144 141 153 167 188 183 192
208 185 197 206 219 212 184 178 175 172 178 179 189 192 192 185 185 182 179 173 171 138 143 142 134 127 146 156 177 194 202 188 203
161 209 202 195 185 176 192 172 169 178 178 188 182 181 145 164 170 163 156 140 136 134 134 129 137 150 158 169 191 188 196 197 204
122 59 342 201 164 164 161 163 159 163 173 148 141 130 132 132 137 134 128 129 135 140 132 135 149 155 159 182 179 178 195 199 206
174 119 102 55 126 127 128 126 138 127 134 122 121 116 117 117 110 113 120 129 132 129 127 136 154 153 161 163 159 158 158 166 172
29 65 120 103 81 71 68 97 103 117 119 116 114 113 110 110 114 118 120 126 128 125 131 142 152 161 153 158 154 145 145 142 141
16 12 81 110 113 103 95 92 97 106 109 111 107 107 110 108 106 100 84 63 42 105 58 99 150 164 146 158 166 184 165 160 163
16 11 297 93 95 101 100 95 92 94 102 108 115 111 118 113 115 112 111 110 86 46 62 57 74 162 132 79 176 148 148 149 154
30 11 300 99 100 97 100 111 110 113 116 110 116 117 128 125 127 129 127 124 120 112 39 61 51 53 103 123 142 133 127 125 116